STARLINK-37769, 69834

Orbit data source: Space-Track

STARLINK-37769, 69834 is a payload satellite owned by SpaceX/Seattle (US) in LEO that was launched on Sun, 05 Jul 2026 UTC via an FALCON 9 launch vehicle from the Air Force Eastern Test Range (AFETR). Payload-class satellites include a variety of spacecraft equipped with specific instruments for various scientific and technological missions. These include communications satellites like Starlink; space stations such as the ISS; scientific satellites like the Hubble; Earth observation satellites from companies like Planet Labs, Umbra, and HawkEye 360; GPS; miniature CubeSats for education and research; and military/defense satellites.

Loading next visibility...
Identifier
69834, 2026-154R
Orbit
LEO
Country
Flag of USUS
Related business
Manufacturer
SpaceX/Seattle
Mission
Operational spacecraft
Bus & Motor
STARLINK V2MO, Unknown motor
Mass
575 kg wet, ~530 kg dry
Launch date (UTC)
2026-07-05 (2 months ago)
Launch vehicle
FALCON 9
Launch site
Air Force Eastern Test Range (AFETR)
Object type
Payload
Rocket body
Debris
Shape & HBR
BOX + PAN, 17.7 m
Radar Cross Section
Large (>1 m²)

Expand to show TLE details & history
Last TLE update: 10 hours ago

TLE from 10 hours ago
0 STARLINK-37769
1 69834U 26154R   26254.53660435  .00020322  00000-0  61105-3 0  9994
2 69834  53.1610  13.5120 0001178  57.6365 302.4751 15.34395548 11864
Epoch: 2026-09-11T12:52Z
TLE epoch observation values (Epoch: 2026-09-11T12:52:42.615Z)
Latitude
-0.00008°
Longitude
-170.22417°
Altitude
463.185 km
Speed
7.636 km/s
True Right ascension
00h 54m 02s
True Declination
0° 00' 00"
Sunlit
Object was in full shadow at epoch
Visualization orbit readout
Latitude
Unknown
Longitude
Unknown
Altitude
Unknown
Speed
Unknown
Apparent Right ascension
Unknown
Apparent Declination
Unknown
Sunlit
N/A
Visualization observer readout
Local Sidereal Time
15:12:02
Azimuth
Unknown
Elevation
Unknown
Doppler factor
Unknown
Orbital elements
Apogee altitude
463.779 km
Perigee altitude
462.167 km
Semi-major axis
6,841.11 km
Eccentricity
0.00012
Inclination
53.161°
RAAN
13.512°
Arg. of periapsis
57.6365°
True anomaly
302.46371°
Mean anomaly
302.4751°
Eccentric anomaly
302.46941°
Mean motion
3.83578 °/min
Orbital period
93.85 mins
BSTAR
0.00061105
Loading maneuver chart data...
Computing Atmospheric mass density...
Loading historical data...
Loading historical data...
Loading historical data...
Loading historical data...
Loading historical data...
Loading historical data...
Loading historical data...

Documentation

Showing up to 5 results
|